{"data":{"norad_id":53750,"intl_designator":"2022-107BC","name":"STARLINK-4612","alt_names":[],"object_type":"PAYLOAD","status":"ACTIVE","operator":null,"country":"US","launch_date":"2022-09-05","launch_site_code":"AFETR","launch_vehicle":null,"mission":null,"orbit_class":"UNKNOWN","rcs_meters":null,"size_class":null,"mass_kg":null,"dimensions":null,"purposes":["comms"],"wikipedia_slug":null,"has_3d_model":false,"image_url":null,"decayed_at":null,"tle_current":{"epoch":"2026-05-24T21:16:47.043840Z","epoch_age_seconds":84943,"freshness":"FRESH","line1":"1 53750U 22107BC  26144.88665560  .00000513  00000+0  50314-4 0  9998","line2":"2 53750  53.2118 282.2635 0001031  94.2806 265.8304 15.08835935206108","mean_motion":15.08835935,"eccentricity":0.0001031,"inclination_deg":53.2118,"raan_deg":282.2635,"arg_perigee_deg":94.2806,"mean_anomaly_deg":265.8304,"bstar":5.0314e-5,"rev_number":20610,"period_min":95.437811798935,"perigee_km":539.04257932164,"apogee_km":540.4690488199,"semimajor_km":6917.8928140708,"source":"CELESTRAK","updated_at":"2026-05-25T13:38:17.540457Z"}}}